Location: Southlake
(32.9412°N, 97.1342°W)
Time: 02:16:39
(UTC+00:00)

OAO 3 Rocket - Pass Details

Date: 03 December 2021
Orbit: 628 x 682 km, 35.0° (Epoch: 17 January)

Event Time Altitude Azimuth Distance (km) Brightness Sun altitude
Exits shadow 12:06:01 20° 264° (W) 1,564 4.6 -14.3°
Maximum altitude 12:08:59 39° 206° (SSW) 1,005 4.0 -13.7°
Drops below altitude 10° 12:13:34 10° 138° (SE) 2,101 6.8 -12.8°
Sets 12:16:03 0° 130° (SE) 3,008 8.0 -12.3°
